EDNY

Friedrichshafen Airport

Airport
ICAO code
EDNY
IATA Code
FDH
Summary
ICAO Region
EUR
ICAO Territory
Location

Friedrichshafen, Baden-Württemberg

Serving
Lake Constance/Bodensee
Elevation
1358 ft
Coordinates
47° 40' 20" N , 9° 30' 44" E
KCC
Metar
Observation
EDNY 061650Z 03009KT 9999 OVC025 00/M04 Q1034
Station
Friedrichshafen
Date/Time
2023-02-06 16:50:00
Wind direction
30°
Wind speed
09 kts
Lowest cloud amount
overcast
Temperature
0°C
Dew point
-4°C
Humidity
74%
QNH
1034 hPa
Weather condition
n/a

Friedrichshafen Airport (also known as Bodensee Airport Friedrichshafen) is a minor international airport 3km north of Friedrichshafen, Germany, on the banks of Lake Constance.

Climatology

Temperate Marine climate/Oceanic climate (Köppen climate classification Cfb) - Moderately cool summer and comparatively warm winter.

Runways

Designator Length Width Surface Rops
6/24 2356 45 ASP Yes/Yes

Airport map

Aerial View

SKYbrary Partners:

Safety knowledge contributed by: